Weather in Bol'shaya Seya

Russia / Republic of Khakassia     52°44′39″N   89°47′48″E
temp.,
°C
wind,
m/s
gust,
m/s
humid.,
%
clouds,
%
prec.,
mm/h
press.,
hPa
HPBL,
m
13 april, tue
tue1301:00+2sw2386100 0.0 102742
04:00+1sw2289100 0.0 102638
07:00+2sw3885100 0.0 1024166
10:00+5w61274100 0.0 1024849
13:00+4w61176100 0.0 10251029
16:00+2w51091100 1.1 1027758
19:00+1wsw5108552 1.3 1028662
22:00−1w6128540 0.0 1032663
14 april, wed
wed1401:00−3wsw3888100 0.1 1034325
04:00−2wsw61285100 0.2 1033921
07:00−2wsw7138267 0.2 10341128
10:00+1wsw8127198 0.0 10341337
13:00+3wsw81264100 0.1 10311455
16:00+3wsw71570100 0.0 10291445
19:00+1wsw81691100 0.3 10281175
22:00+1wsw81783100 0.8 10271131
15 april, thu
thu1501:00+1wsw8167597 0.8 10261041
04:00+1wsw71587100 0.1 1027973
07:00+1wsw61486100 0.2 1027941
10:00+5wsw6127294 0.1 10271140
13:00+8w6961100 0.1 10251308
16:00+8w596298 0.0 10231192
19:00+6w378198 0.0 1023381
22:00+3wsw259199 0.0 1024107
16 april, fri
fri1601:00
04:00+1wsw229295 0.0 102214
07:00+1ssw229194 0.0 102261
10:00+7wsw257251 0.0 1020495
13:00+10w585854 0.0 10171505
16:00+12w59545 0.0 10151462
19:00+9w49718 0.0 1015489
22:00+5sw228948 0.0 101525
17 april, sat
sat1701:00+4sw22915 0.0 101415
04:00+3sw2292100 0.0 101214
07:00+3sw2291100 0.0 101127
10:00+9w1169100 0.0 1008273
13:00+15wsw4124298 0.0 10042377
16:00+13wnw61154100 0.0 10041492
19:00+7w51080100 0.1 1006800
22:00+6sw41085100 1.0 1008728